Regional Weather Roundup
Issued by NWS Cleveland, OH

Home | Current Version | Previous Version | Text Only | Print | Product List | Glossary Off
Versions: 1 2 3 4 5 6 7 8 9 10 11 12 13 14 15 16 17 18 19 20 21 22 23 24 25 26 27 28 29 30 31 32 33 34 35 36 37 38 39 40 41 42 43 44 45 46 47 48 49 50

000
ASUS41 KCLE 220710
RWRCLE
OHIO REGIONAL WEATHER ROUNDUP
NATIONAL WEATHER SERVICE CLEVELAND, OH
200 AM EST SUN JAN 22 2017

NOTE: "FAIR" INDICATES FEW OR NO CLOUDS BELOW 12,000 FEET WITH NO
SIGNIFICANT WEATHER AND/OR OBSTRUCTIONS TO VISIBILITY.

OHZ001>008-015>018-024>027-034-035-043-044-220800-
   NORTHWEST OHIO

CITY           SKY/WX    TMP DP  RH WIND       PRES   REMARKS
DEFIANCE       FOG       43  42  97 CALM      29.61S VSB 1/4
FINDLAY        PTCLDY    47  43  86 SE6       29.62S FOG
TOLEDO EXPRESS FOG       41  41 100 CALM      29.61S VSB 1/4
TOLEDO EXEC    FOG       45  45 100 S5        29.62S VSB 1/4
LIMA           CLEAR     49  49 100 S8        29.62S
$$

OHZ009>014-019>023-028>033-038-089-220800-
   NORTHEAST OHIO

CITY           SKY/WX    TMP DP  RH WIND       PRES   REMARKS
CLE-HOPKINS    CLOUDY    56  49  77 S8        29.67S
CLE-LAKEFRONT  CLOUDY    57  50  77 S13       29.63F
CUY CO. ARPT   NOT AVBL
LORAIN-ELYRIA  CLOUDY    52  48  86 S8        29.65S
ASHTABULA      LGT RAIN  54  49  83 SW10      29.67R
AKRON-CANTON   LGT RAIN  53  50  89 S8        29.67F FOG
WOOSTER        CLOUDY    52  48  86 S6        29.66F
MANSFIELD      PTCLDY    52  50  93 S9        29.66S
YOUNGSTOWN     LGT RAIN  53  49  86 S6        29.70S
$$

OHZ042-051>053-060>062-070>072-077>081-220800-
  SOUTHWEST OHIO

CITY           SKY/WX    TMP DP  RH WIND       PRES   REMARKS
CINC-COVINGTON CLEAR     51  50  96 S3        29.61F
CINC-LUNKEN    FOG       47  47 100 CALM      29.63F VSB 1/4
HAMILTON       CLOUDY    45  45 100 CALM      29.63F FOG
DAYTON         PTCLDY    50  49  96 S7        29.63F FOG
WRIGHT-PAT AFB CLEAR     46  46 100 CALM      29.63F
DAYTON GENERAL CLEAR     52  50  93 SE3       29.62F
WILMINGTON     CLOUDY    51  50  96 S3        29.63F
$$

OHZ036-037-039>041-045>050-054>059-063>069-073>076-082>088-220800-
  CENTRAL AND SOUTHEAST OHIO

CITY           SKY/WX    TMP DP  RH WIND       PRES   REMARKS
COLUMBUS       CLOUDY    55  51  86 S3        29.65S
OSU AIRPORT    MOCLDY    53  50  89 S6        29.64F
BOLTON FIELD   CLOUDY    51  50  97 S3        29.65F
RICKENBACK AFB   N/A     51  51 100 SE8       29.64F
NEWARK         FOG       50  49  96 W5        29.65F VSB 3/4
MARION         CLOUDY    50  48  93 S6        29.64F
LANCASTER      LGT RAIN  52  50  93 CALM      29.67F FOG
ZANESVILLE     CLOUDY    52  49  89 CALM      29.67F
NEW PHILLY     NOT AVBL
$$




USA.gov is the U.S. government's official web portal to all federal, state and local government web resources and services.